www.pogodaiklimat.ru
Время
и дата
19:36 30.12
19:54 30.12
20:04 30.12
20:39 30.12
20:54 30.12
21:11 30.12
21:49 30.12
21:54 30.12
22:04 30.12
22:19 30.12
22:54 30.12
23:24 30.12
23:54 30.12
00:54 31.12
01:06 31.12
01:25 31.12
01:54 31.12
02:00 31.12
02:09 31.12
02:18 31.12
02:26 31.12
02:41 31.12
02:54 31.12
03:54 31.12
04:16 31.12
04:38 31.12
04:52 31.12
04:54 31.12
05:30 31.12
05:39 31.12
05:54 31.12
06:10 31.12
06:42 31.12
06:54 31.12
07:54 31.12
08:54 31.12
09:54 31.12
10:01 31.12
10:43 31.12
10:54 31.12
11:03 31.12
11:54 31.12
12:54 31.12
13:54 31.12
14:54 31.12
15:54 31.12
16:54 31.12
17:54 31.12
Ветер
(напр.,м/с)
Видим. Явления Облачность Т
(С)
Тd
(С)
f
(%)
Тe
(С)
Тes
(С)
Комфортность P
(гПа)
Po
(гПа)
Тmin
(С)
Tmax
(С)
R
(мм)
R24
(мм)
S
(см)
штиль 0 3 км дымка 10/10 60 м +13.3 +12.2 93 +13 +13 979.0
ЮВ 1 2 км дымка 10/10 60 м +13.3 +12.2 93 +13 +13 1012.7 979.0
штиль 0 1 км дымка ?/? +13.3 +12.2 93 +13 +13 979.0
штиль 0 2 км дымка ?/? +13.3 +12.2 93 +13 +13 979.3
штиль 0 800 м туман ?/? +13.3 +12.2 93 +13 +13 1013.1 979.3
штиль 0 400 м туман ?/? +13.3 +12.2 93 +13 +13 979.3
Ю 1 800 м туман ?/? +13.0 +12.0 94 +12 +12 979.3
штиль 0 800 м туман ?/? +13.3 +12.2 93 +13 +13 1013.0 979.3
штиль 0 400 м туман ?/? +13.3 +12.2 93 +13 +13 979.3
штиль 0 800 м туман ?/? +13.3 +12.2 93 +13 +13 979.6
штиль 0 800 м туман ?/? +13.3 +12.2 93 +13 +13 1012.8 979.3
штиль 0 400 м туман ?/? +13.3 +12.2 93 +13 +13 979.3
штиль 0 400 м туман ?/? +13.3 +12.2 93 +13 +13 1012.7 979.3
штиль 0 400 м туман ?/? +13.3 +12.2 93 +13 +13 1012.9 979.3 +13.3 +13.3
штиль 0 800 м туман ?/? +13.3 +12.2 93 +13 +13 979.3
штиль 0 1 км дымка 10/10 210 м +13.3 +12.2 93 +13 +13 979.3
штиль 0 2 км дымка 10/10 150 м +13.3 +12.2 93 +13 +13 1012.8 979.3
штиль 0 3 км дымка 10/10 150 м +13.3 +12.2 93 +13 +13 979.3
штиль 0 2 км дымка 10/10 150 м +13.3 +12.2 93 +13 +13 979.3
штиль 0 3 км дымка 10/10 150 м +13.3 +12.2 93 +13 +13 979.3
штиль 0 10 км дымка 10/10 150 м +13.3 +12.2 93 +13 +13 979.6
штиль 0 3 км дымка 10/10 120 м +12.8 +12.2 96 +12 +12 979.3
штиль 0 5 км дымка 10/10 120 м +12.8 +12.2 96 +12 +12 1013.0 979.3
нст 1 6 км дымка 10/10 60 м +13.3 +12.2 93 +13 +13 1013.0 979.3
ЮЗ 1 3 км дымка 10/10 60 м +13.3 +12.2 93 +13 +13 979.6
нст 1 3 км дымка 10/10 60 м +12.8 +12.2 96 +12 +12 979.6
ЮЗ 1 2 км дымка 10/10 60 м +13.0 +12.0 94 +12 +12 979.6
ЮЗ 1 2 км дымка 10/10 60 м +12.8 +12.2 96 +11 +11 1013.0 979.6
ЮЗ 1 2 км дымка ?/? +12.8 +12.2 96 +12 +12 979.6
ЮЗ 1 1 км дымка ?/? +12.8 +11.7 93 +12 +12 980.0
Ю 1 1 км дымка ?/? +12.8 +11.7 93 +12 +12 1013.4 980.0
нст 1 2 км дымка 10/10 60 м +12.8 +11.7 93 +12 +12 980.3
З 1 1 км дымка 10/10 60 м +12.2 +11.7 97 +11 +11 979.6
штиль 0 2 км дымка 10/10 60 м +12.2 +11.7 97 +12 +12 1014.0 980.3 +12.2 +13.3
штиль 0 2 км дымка 10/10 60 м +12.2 +11.7 97 +12 +12 1015.1 981.3
ЮЗ 2 2 км дымка 10/10 60 м +12.2 +11.1 93 +10 +10 1015.7 981.9
Ю 1 2 км дымка 10/10 90 м +13.3 +12.2 93 +13 +13 1015.7 981.9
Ю 1 3 км дымка 10/10 60 м +13.3 +12.2 93 +12 +12 981.9
ЮЗ 1 3 км дымка 8/8 180 м +13.3 +11.1 87 +12 +12 981.9
нст 1 16 км 5/5 180 м +13.3 +11.7 90 +12 +13 1015.3 981.6
ЮЗ 1 16 км 8/8 180 м +14.4 +11.1 81 +13 +14 981.6
Ю 2 16 км 8/5 300 м
[Ac]
+15.0 +11.1 77 +14 +15 1014.5 980.9
ЮЗ 1 16 км 10/5 300 м
[Ac]
+15.6 +11.1 75 +16 +17 1014.0 980.3 +12.2 +16.1
штиль 0 16 км 10/0 3000 м
[Ac]
+15.0 +11.1 77 +15 +17 1013.2 979.6
Ю 1 16 км слабый дождь 10/2 1800 м
[Ac]
+15.0 +11.7 81 +14 +16 1013.6 980.0
штиль 0 16 км слабый дождь 10/0 2700 м
[Ac]
+14.4 +12.8 90 +14 +15 1013.3 979.6 0.3
Ю 1 16 км 10/0 2850 м
[Ac]
+13.9 +12.2 89 +13 +13 1012.5 979.0
ЮЗ 1 16 км слабый дождь 10/0 2700 м
[Ac]
+13.9 +12.8 93 +13 +13 1012.5 979.0
Местоположение метеостанции Lynchburg Regional Airport: широта 37.3208 долгота -79.2067 высота над уровнем моря 285 м.
В архиве по умолчанию представлена погода в Линчбурге за последние 1-2 суток. Обновление информации о фактической погоде в базе происходит ежечасно! Архивные данные за месяц целиком и за предыдущие месяцы Вы можете получить, выбрав интересующий диапазон дат из раскрывающегося списка и нажав кнопку "Ввод!".
Внимание! Архив погоды МЕТАР в базе сайта по станциям, не включенным в климатический монитор, хранится не более 60 дней. Нет смысла пытаться выбрать более раннюю дату.
*Определитесь, кто Вы:
Внимание! Время в таблицах - местное (без учета летнего времени). Для получения всемирного времени необходимо вычесть поправку, которая равна -5 ч.
Смотрите также архив погоды в соседних городах и на ближайших метеорологических станциях:
Партнеры нашего сайта:      
Пояснения к столбцам:
  • Ветер - указаны скорость ветра в м/с - средняя за 10 мин, порывы в срок и между сроками (в фигурных скобках) и направление, откуда дует ветер: С - северный,
  • СВ - северо-восточный, В - восточный, ЮВ - юго-восточный, Ю - южный, ЮЗ - юго-западный, З - западный, СЗ - северо-западный.
  • Видимость - горизонтальная дальность видимости в метрах или километрах. При видимости от 1 до 10 км при отсутствии осадков обычно наблюдается дымка, при ухудшении видимости до 1 км и менее - туман. В сухую погоду видимость может ухудшаться дымом, пылью или мглою.
  • Явления - указаны атмосферные явления, наблюдавшиеся в срок или в последний час перед сроком; фигурными скобками обозначены явления, наблюдавшиеся между сроками (за 1-3 часа до срока); квадратными скобками обозначены град или гололедные отложения с указанием их диаметра в мм.
  • Облачность - указаны через наклонную черту общая и нижняя облачность в баллах и высота нижней границы облаков в метрах; квадратными скобками обозначены формы облаков: Ci - перистые, Cs - перисто-слоистые, Cc - перисто-кучевые, Ac - высококучевые, As - высокослоистые, Sc - слоисто-кучевые, Ns - слоисто-дождевые, Cu - кучевые, Cb - кучево-дождевые. Подробнее классификацию облаков см. в Атласе облаков (PDF).
  • T - Температура воздуха - температура, измеренная на высоте 2 м над землей.
  • Td - Температура точки росы - температура, при понижении до которой содержащийся в воздухе водяной пар достигнет насыщения.
  • f - Относительная влажность воздуха - влажноcть воздуха, измеренная на высоте 2 м над землей.
  • Te - Эффективная температура - температура, которую ощущает одетый по сезону человек в тени. Характеристика душности погоды. При расчете учитывается влияние влажности воздуха и скорости ветра на теплоощущения человека.
  • Tes - Эффективная температура на солнце - температура, которую ощущает человек, с поправкой на солнечный нагрев. Характеристика знойности погоды. Зависит от высоты солнца над горизонтом, облачности и скорости ветра. Ночью, в пасмурную погоду, а также при ветре 12 м/с и более поправка равна нулю.
  • P - Атмосферное давление - приведенное к уровню моря атмосферное давление.
  • Po - Атмосферное давление - измеренное на уровне метеостанции атмосферное давление.
  • Tmin - Минимальная температура - минимум температуры воздуха на высоте 2 м над землей.
  • Tmax - Максимальная температура - максимум температуры воздуха на высоте 2 м над землей.
  • R - Количество осадков - Количество выпавших осадков за период времени, мм. При наведении курсора мыши на число - период времени, за который выпало указанное количество осадков.
  • R24 - Количество осадков - Количество выпавших осадков за 24 часа, мм.
  • S - Снежный покров - Высота снежного покрова, см. При наведении курсора мыши на число - состояние снежного покрова и степень покрытия местности в баллах.